Location: Arbon
(43.0005°N, 0.7472°E)
Time: 09:50:27
(UTC+00:00)

SR - Pass Details

Date: 26 November 2020
Orbit: 575 x 880 km, 66.7° (Epoch: 21 January)

Event Time Altitude Azimuth Distance (km) Brightness Sun altitude
Rises 04:04:44 0° 326° (NNW) 3,190 - -32.1°
Reaches altitude 10° 04:07:03 10° 325° (NW) 2,309 - -31.7°
Maximum altitude 04:12:21 72° 242° (WSW) 856 - -30.8°
Exits shadow 04:14:50 34° 167° (SSE) 1,333 ? -30.3°
Drops below altitude 10° 04:18:03 10° 159° (SSE) 2,468 ? -29.7°
Sets 04:20:35 0° 157° (SSE) 3,427 ? -29.3°
